Showing default

NIMBUS 6, 7924

Orbit data source: Space-Track

NIMBUS 6, 7924 is a payload satellite owned by GSFC (US) in SSO that was launched on Thu, 12 Jun 1975 UTC via a DELTA 2910 launch vehicle from the Air Force Western Test Range (AFWTR). Payload-class satellites include a variety of spacecraft equipped with specific instruments for various scientific and technological missions. These include communications satellites like Starlink; space stations such as the ISS; scientific satellites like the Hubble; Earth observation satellites from companies like Planet Labs, Umbra, and HawkEye 360; GPS; miniature CubeSats for education and research; and military/defense satellites.

Loading next visibility...
Identifier
7924, 1975-052A
Orbit
SSO
Country
Flag of USUS
Related business
Manufacturer
GE/MSVD
Mission
Non-operational Civil Weather
Bus & Motor
NIMBUS, Unknown motor
Mass
827 kg wet, 827 kg dry
Launch date (UTC)
1975-06-12 (50 years ago)
Launch vehicle
DELTA 2910
Launch site
Air Force Western Test Range (AFWTR)
Object type
Payload
Rocket body
Debris
Shape & HBR
Cone + 2 Pan, 1.7 m
Radar Cross Section
2.947 m², Large (>1 m²)

Expand to show TLE details & history
Last TLE update: 20 hours ago

TLE from 20 hours ago
0 NIMBUS 6
1 07924U 75052A   25258.74481911 -.00000028  00000-0  29366-4 0  9999
2 07924 100.0049 169.2501 0007981 160.9247 254.2843 13.40809045459354
Epoch: 2025-09-15T17:52Z
TLE epoch observation values (Epoch: 2025-09-15T17:52:32.371Z)
Latitude
53.98759°
Longitude
-107.80278°
Altitude
1,116.655 km
Speed
7.299 km/s
True Right ascension
10h 21m 06s
True Declination
53° 49' 54"
Sunlit
Object was in daylight at epoch
Visualization orbit readout
Latitude
Unknown
Longitude
Unknown
Altitude
Unknown
Speed
Unknown
Apparent Right ascension
Unknown
Apparent Declination
Unknown
Sunlit
N/A
Visualization observer readout
Local Sidereal Time
06:34:05
Azimuth
Unknown
Elevation
Unknown
Doppler factor
Unknown
Orbital elements
Apogee altitude
1,109.568 km
Perigee altitude
1,097.625 km
Semi-major axis
7,481.733 km
Eccentricity
0.0008
Inclination
100.0049°
RAAN
169.2501°
Arg. of periapsis
160.9247°
True anomaly
254.19629°
Mean anomaly
254.2843°
Eccentric anomaly
254.24029°
Mean motion
3.35382 °/min
Orbital period
107.34 mins
BSTAR
0.000029366
Loading maneuver chart data...
Computing Atmospheric mass density...
Loading historical data...
Loading historical data...
Loading historical data...
Loading historical data...
Loading historical data...
Loading historical data...
Loading historical data...

Documentation

Showing up to 5 results
|